When you browse on this site, cookies collect data to enhance your experience and personalize the content and advertising you see.
Visit our Privacy Policy to learn more. By continuing to use the site, you agree to this use of cookies and data.
  • In France
  • List of Countries
  • For 7 days
  • Water Temperature
  • Weather Map
  • Weather Widgets
  • user-avatar
    Login

    Hourly Weather Bafoussam

    Today, 4 April, Saturday

    Time Temperature Precipitation Wind Pressure Humidity
    00:00 +21°C° 0.7 mm 1 mps 643 mmHg 91%
    01:00 +21°C° 0.7 mm 1 mps 643 mmHg 90%
    02:00 +21°C° 0 mm 1 mps 643 mmHg 90%
    03:00 +20°C° 0 mm 1 mps 642 mmHg 90%
    04:00 +20°C° 0 mm 1 mps 641 mmHg 90%
    05:00 +20°C° 0 mm 1 mps 642 mmHg 91%
    06:00 +20°C° 0 mm 1 mps 643 mmHg 92%
    07:00 +20°C° 0 mm 1 mps 644 mmHg 93%
    08:00 +22°C° 0.2 mm 1 mps 645 mmHg 87%
    09:00 +24°C° 0.2 mm 1 mps 645 mmHg 82%
    10:00 +25°C° 0.2 mm 1 mps 646 mmHg 76%
    11:00 +26°C° 0.2 mm 1 mps 646 mmHg 74%
    12:00 +27°C° 0.2 mm 1 mps 646 mmHg 71%
    13:00 +28°C° 0.2 mm 1 mps 645 mmHg 68%
    14:00 +27°C° 0.8 mm 1 mps 645 mmHg 70%
    15:00 +26°C° 0.8 mm 1 mps 644 mmHg 73%
    16:00 +26°C° 0.8 mm 2 mps 643 mmHg 76%
    17:00 +24°C° 0.6 mm 2 mps 643 mmHg 81%
    18:00 +23°C° 0.6 mm 2 mps 644 mmHg 87%
    19:00 +21°C° 0.6 mm 2 mps 644 mmHg 92%
    20:00 +22°C° 1.3 mm 1 mps 644 mmHg 92%
    21:00 +21°C° 1.3 mm 1 mps 645 mmHg 93%
    22:00 +21°C° 1.3 mm 1 mps 645 mmHg 93%
    23:00 +21°C° 2 mm 1 mps 645 mmHg 93%

    Tomorrow, 5 April, Sunday

    Time Temperature Precipitation Wind Pressure Humidity
    00:00 +20°C° 2 mm 1 mps 645 mmHg 94%
    01:00 +20°C° 2 mm 1 mps 644 mmHg 95%
    02:00 +20°C° 0 mm 1 mps 644 mmHg 94%
    03:00 +20°C° 0 mm 1 mps 643 mmHg 94%
    04:00 +20°C° 0 mm 1 mps 643 mmHg 93%
    05:00 +20°C° 0 mm 1 mps 643 mmHg 92%
    06:00 +18°C° 0 mm 0 mps 644 mmHg 91%
    07:00 +18°C° 0 mm 0 mps 644 mmHg 90%
    08:00 +21°C° 0 mm 0 mps 645 mmHg 80%
    09:00 +23°C° 0 mm 0 mps 646 mmHg 71%
    10:00 +25°C° 0 mm 0 mps 647 mmHg 62%
    11:00 +28°C° 0.3 mm 1 mps 647 mmHg 60%
    12:00 +29°C° 0.3 mm 1 mps 646 mmHg 58%
    13:00 +29°C° 0.3 mm 1 mps 646 mmHg 56%
    14:00 +29°C° 0.9 mm 2 mps 645 mmHg 59%
    15:00 +28°C° 0.9 mm 2 mps 644 mmHg 62%
    16:00 +28°C° 0.9 mm 2 mps 643 mmHg 64%
    17:00 +26°C° 0.6 mm 1 mps 643 mmHg 70%
    18:00 +24°C° 0.6 mm 1 mps 643 mmHg 76%
    19:00 +23°C° 0.6 mm 1 mps 643 mmHg 82%
    20:00 +22°C° 0.2 mm 1 mps 643 mmHg 84%
    21:00 +22°C° 0.2 mm 1 mps 644 mmHg 85%
    22:00 +22°C° 0.2 mm 1 mps 644 mmHg 86%
    23:00 +21°C° 0.7 mm 1 mps 644 mmHg 87%

    Day after tomorrow, 6 April, Monday

    Time Temperature Precipitation Wind Pressure Humidity
    00:00 +21°C° 0.7 mm 1 mps 644 mmHg 88%
    01:00 +21°C° 0.7 mm 1 mps 643 mmHg 89%
    02:00 +19°C° 0.1 mm 0 mps 643 mmHg 89%
    03:00 +18°C° 0.1 mm 0 mps 643 mmHg 89%
    04:00 +18°C° 0.1 mm 0 mps 642 mmHg 88%
    05:00 +19°C° 0.1 mm 0 mps 643 mmHg 88%
    06:00 +19°C° 0.1 mm 0 mps 643 mmHg 88%
    07:00 +19°C° 0.1 mm 0 mps 644 mmHg 88%
    08:00 +21°C° 0.1 mm 0 mps 645 mmHg 83%
    09:00 +22°C° 0.1 mm 0 mps 646 mmHg 78%
    10:00 +24°C° 0.1 mm 0 mps 646 mmHg 73%
    11:00 +25°C° 0.7 mm 0 mps 646 mmHg 71%
    12:00 +27°C° 0.7 mm 1 mps 645 mmHg 69%
    13:00 +28°C° 0.7 mm 1 mps 645 mmHg 66%
    14:00 +27°C° 0.4 mm 1 mps 644 mmHg 67%
    15:00 +27°C° 0.4 mm 1 mps 644 mmHg 68%
    16:00 +27°C° 0.4 mm 1 mps 643 mmHg 69%
    17:00 +25°C° 0.3 mm 1 mps 643 mmHg 75%
    18:00 +24°C° 0.3 mm 1 mps 643 mmHg 81%
    19:00 +23°C° 0.3 mm 1 mps 643 mmHg 87%
    20:00 +22°C° 0.2 mm 1 mps 643 mmHg 87%
    21:00 +22°C° 0.2 mm 1 mps 644 mmHg 88%
    22:00 +21°C° 0.2 mm 1 mps 644 mmHg 88%
    23:00 +19°C° 0.1 mm 0 mps 644 mmHg 88%

    7 April, Tuesday

    Time Temperature Precipitation Wind Pressure Humidity
    00:00 +19°C° 0.1 mm 0 mps 644 mmHg 88%
    01:00 +19°C° 0.1 mm 0 mps 643 mmHg 88%
    02:00 +19°C° 0 mm 0 mps 643 mmHg 87%
    03:00 +19°C° 0 mm 0 mps 643 mmHg 87%
    04:00 +20°C° 0 mm 1 mps 642 mmHg 87%
    05:00 +19°C° 0 mm 0 mps 643 mmHg 87%
    06:00 +19°C° 0 mm 0 mps 643 mmHg 87%
    07:00 +19°C° 0 mm 0 mps 643 mmHg 87%
    08:00 +21°C° 0.2 mm 0 mps 644 mmHg 82%
    09:00 +24°C° 0.2 mm 1 mps 645 mmHg 77%
    10:00 +26°C° 0.2 mm 1 mps 646 mmHg 72%
    11:00 +26°C° 0.7 mm 1 mps 646 mmHg 70%
    12:00 +27°C° 0.7 mm 1 mps 645 mmHg 68%
    13:00 +28°C° 0.7 mm 1 mps 645 mmHg 65%
    14:00 +27°C° 0.7 mm 1 mps 644 mmHg 68%
    15:00 +27°C° 0.7 mm 1 mps 643 mmHg 70%
    16:00 +26°C° 0.7 mm 2 mps 643 mmHg 73%
    17:00 +25°C° 0.7 mm 2 mps 643 mmHg 79%
    18:00 +24°C° 0.7 mm 1 mps 642 mmHg 85%
    19:00 +22°C° 0.7 mm 1 mps 642 mmHg 91%
    20:00 +22°C° 0.4 mm 1 mps 643 mmHg 92%
    21:00 +22°C° 0.4 mm 1 mps 643 mmHg 93%
    22:00 +21°C° 0.4 mm 1 mps 644 mmHg 93%
    23:00 +21°C° 0.5 mm 1 mps 644 mmHg 93%

    8 April, Wednesday

    Time Temperature Precipitation Wind Pressure Humidity
    00:00 +21°C° 0.5 mm 1 mps 644 mmHg 93%
    01:00 +21°C° 0.5 mm 1 mps 644 mmHg 93%
    02:00 +19°C° 2.8 mm 2 mps 643 mmHg 93%
    03:00 +19°C° 2.8 mm 3 mps 643 mmHg 93%
    04:00 +18°C° 2.8 mm 4 mps 643 mmHg 93%
    05:00 +18°C° 2.9 mm 3 mps 643 mmHg 93%
    06:00 +18°C° 2.9 mm 3 mps 643 mmHg 93%
    07:00 +18°C° 2.9 mm 3 mps 643 mmHg 93%
    08:00 +19°C° 0.1 mm 2 mps 643 mmHg 89%
    09:00 +20°C° 0.1 mm 2 mps 644 mmHg 84%
    10:00 +22°C° 0.1 mm 1 mps 645 mmHg 79%
    11:00 +23°C° 0 mm 1 mps 644 mmHg 80%
    12:00 +23°C° 0 mm 1 mps 644 mmHg 80%
    13:00 +21°C° 0 mm 0 mps 644 mmHg 80%
    14:00 +22°C° 0.1 mm 0 mps 643 mmHg 79%
    15:00 +22°C° 0.1 mm 0 mps 643 mmHg 77%
    16:00 +22°C° 0.1 mm 0 mps 642 mmHg 75%
    17:00 +23°C° 0 mm 1 mps 642 mmHg 79%
    18:00 +22°C° 0 mm 1 mps 642 mmHg 84%
    19:00 +21°C° 0 mm 1 mps 642 mmHg 88%
    20:00 +21°C° 0 mm 1 mps 643 mmHg 90%
    21:00 +20°C° 0 mm 1 mps 643 mmHg 91%
    22:00 +18°C° 0 mm 0 mps 644 mmHg 93%
    23:00 +18°C° 0 mm 0 mps 643 mmHg 92%

    9 April, Thursday

    Time Temperature Precipitation Wind Pressure Humidity
    00:00 +17°C° 0 mm 0 mps 643 mmHg 91%
    01:00 +17°C° 0 mm 0 mps 643 mmHg 90%
    02:00 +17°C° 0.1 mm 0 mps 643 mmHg 92%
    03:00 +19°C° 0.1 mm 1 mps 642 mmHg 94%
    04:00 +19°C° 0.1 mm 1 mps 642 mmHg 96%
    05:00 +19°C° 0 mm 1 mps 642 mmHg 94%
    06:00 +19°C° 0 mm 1 mps 642 mmHg 92%
    07:00 +18°C° 0 mm 0 mps 643 mmHg 90%
    08:00 +22°C° 0 mm 1 mps 644 mmHg 82%
    09:00 +24°C° 0 mm 1 mps 645 mmHg 73%
    10:00 +26°C° 0 mm 1 mps 646 mmHg 65%
    11:00 +26°C° 0.7 mm 1 mps 645 mmHg 68%
    12:00 +25°C° 0.7 mm 1 mps 645 mmHg 71%
    13:00 +25°C° 0.7 mm 1 mps 644 mmHg 75%
    14:00 +24°C° 1.3 mm 1 mps 644 mmHg 77%
    15:00 +24°C° 1.3 mm 1 mps 643 mmHg 79%
    16:00 +23°C° 1.3 mm 1 mps 643 mmHg 82%
    17:00 +22°C° 0.8 mm 1 mps 643 mmHg 85%
    18:00 +21°C° 0.8 mm 1 mps 643 mmHg 89%
    19:00 +21°C° 0.8 mm 1 mps 643 mmHg 92%
    20:00 +20°C° 0.2 mm 1 mps 643 mmHg 92%
    21:00 +20°C° 0.2 mm 1 mps 643 mmHg 92%
    22:00 +20°C° 0.2 mm 1 mps 643 mmHg 91%
    23:00 +20°C° 0 mm 1 mps 643 mmHg 90%
    Show more